ALOS (DAICHI) (28931 NORAD) Tracking and Keplerian Element Data

This shows tracking and keplerian element data for the satellite.

Feedback or suggestion? Click here.




ElementValue
Catalog28931
NameALOS (DAICHI)
Epoch Orbit95808
Epoch Day12.85696186
Epoch Year2024
RAAN329.5475
Inclination98.0177
Eccentricity6.83E-05
Argument of Perigee51.4056
Mean Anonmoly308.7209
Mean Motion14.64974184
Decay Rate2.408E-05
L11 28931U 06002A 24012.85696186 .00002408 00000+0 45838-3 0 9993
L22 28931 98.0177 329.5475 0000683 51.4056 308.7209 14.64974184958087



Live tracking and technical data element details for ALOS (DAICHI) (NORAD 28931). ALOS (DAICHI) can be tracked NOW for your location showing map with azimuth and elevation plus other details from your city location.







IsCatalogInMostPopularTable: catalog: 28931, numindb: 421
Update: records affected: 1



GetName: 28931 ALOS (DAICHI)

Hit Count: updated at: Sun, 14 Apr 2024 23:04:20 GMT